Starlink 11614

operational
NORAD ID: 63270 Int'l Des: 2025-053 Owner: SPXS Country: US Constellation: starlink
LEOCIRCULAR

About Starlink 11614

Description loading...

Live Position

Loading 3D Globe...

Upcoming Passes

Altitude History

Altitude vs Time

uPlot chart will show altitude changes over time

Two-Line Element Set

1 63270U 25053F 25312.53997990 .00296664 00000-0 22335-2 0 9997
2 63270 43.0000 122.6730 0002406 273.0178 87.0414 15.70844657 38617
Epoch: Nov 8, 2025 • Age: 40 hours

Current Status

Altitude 356.9 km
Velocity 7.70 km/s
Sub-Earth Point 37.02°N, 112.56°E
Launch Date Mar 15, 2025
Age 0.6 years
Type internet

Technical Details

Classification Payload
Mass 960.00 kg
Dry Mass 910.00 kg
Total Mass 960.00 kg
Length 0.30 m
Diameter 4.10 m
Span 29.00 m
Shape Box + pan
Manufacturer SPXS
Bus Type Starlink V2MD
Phase Status In Orbit
Owner/State SPXS/US

Large Constellations

Loading constellations...